Home > Weather > Brighton > Past weeks

Flag for United Kingdom Weather for the Past 2 Weeks in Brighton, England, United Kingdom

Now
59 °F

Sunny.


Feels Like: 57 °F
Forecast: 50 / 64 °F
Wind: 9 mph from Southeast

Location: Shoreham Airport

Current Time: May 5, 2016 at 2:03:07 PM

Latest Report: May 5, 2016 at 1:20 PM


Visibility: 10 mi

Pressure: 30.09 "Hg

Humidity: 59%

Dew Point: 45 °F

Location of BrightonLocation

Historic Weather in Brighton — Graph

°F

Brighton Temperature Yesterday

Maximum temperature yesterday: 55 °F (at 2:20 PM)
Minimum temperature yesterday: 50 °F (at 7:50 AM)
Average temperature yesterday: 53 °F

High & Low Weather Summary for the Past Weeks

 TemperatureHumidityPressure
High64 °F (Apr 21, 1:50 PM)100% (May 2, 9:50 AM)30.39 "Hg (May 2, 9:50 AM)
Low39 °F (Apr 24, 8:50 AM)33% (Apr 30, 1:50 PM)29.71 "Hg (Apr 25, 4:50 PM)
Average51 °F65%30.09 "Hg
* Reported Apr 20 12:20 PM — May 5 12:50 PM, Brighton, Weather by CustomWeather, © 2016

Note: Actual official high and low records may vary slightly from our data, if they occured in-between our weather recording intervals... More about our weather records

Advertising

Brighton Weather History for the Previous 24 Hours

Scroll right to see more
 ConditionsComfort  
Time TempWeatherWind HumidityBarometerVisibility
12:50 PM
Thu, May 5
61 °FSunny.10 mph42%30.12 "Hg10 mi
12:20 PM61 °FSunny.10 mph45%30.12 "Hg10 mi
11:50 AM59 °FSunny.9 mph55%30.15 "Hg10 mi
11:20 AM57 °FSunny.14 mph59%30.15 "Hg10 mi
10:50 AM57 °FSunny.12 mph63%30.15 "Hg10 mi
10:20 AM57 °FSunny.13 mph63%30.15 "Hg10 mi
9:50 AM57 °FSunny.12 mph63%30.15 "Hg10 mi
9:20 AM57 °FSunny.10 mph63%30.15 "Hg10 mi
8:50 AM55 °FSunny.13 mph67%30.15 "Hg10 mi
8:20 AM55 °FSunny.9 mph67%30.18 "Hg10 mi
7:50 AM55 °FSunny.9 mph67%30.15 "Hg10 mi
7:50 PM
Wed, May 4
50 °FSunny.No wind71%30.24 "Hg10 mi
7:20 PM52 °FSunny.5 mph72%30.24 "Hg10 mi
6:50 PM54 °FSunny.6 mph67%30.24 "Hg10 mi
6:20 PM54 °FSunny.6 mph72%30.27 "Hg10 mi
5:50 PM54 °FSunny.7 mph72%30.27 "Hg10 mi
5:20 PM54 °FSunny.7 mph67%30.27 "Hg10 mi
4:50 PM54 °FSunny.5 mph67%30.30 "Hg10 mi
4:20 PM54 °FSunny.7 mph72%30.30 "Hg10 mi
3:50 PM54 °FSunny.7 mph67%30.30 "Hg10 mi
3:20 PM54 °FSunny.8 mph72%30.30 "Hg10 mi
2:50 PM54 °FSunny.7 mph67%30.33 "Hg10 mi
2:20 PM55 °FSunny.7 mph72%30.33 "Hg10 mi
Weather by CustomWeather, © 2016

See weather overviewHow to use our weather pages